TimeCDT,TemperatureF,Dew PointF,Humidity,Sea Level PressureIn,VisibilityMPH,Wind Direction,Wind SpeedMPH,Gust SpeedMPH,PrecipitationIn,Events,Conditions,WindDirDegrees,DateUTC
12:55 AM,49.8,27.7,42,29.84,10.0,Calm,Calm,-,N/A,,Clear,0,2012-10-20 05:55:00
1:55 AM,47.5,29.1,49,29.84,10.0,SE,5.8,-,N/A,,Clear,140,2012-10-20 06:55:00
2:55 AM,47.5,30.2,51,29.83,10.0,South,4.6,-,N/A,,Clear,180,2012-10-20 07:55:00
3:55 AM,47.8,28.8,48,29.81,10.0,SSE,5.8,-,N/A,,Clear,160,2012-10-20 08:55:00
4:55 AM,48.9,28.0,44,29.78,10.0,SE,5.8,-,N/A,,Clear,130,2012-10-20 09:55:00
5:55 AM,48.4,27.9,45,29.78,10.0,SE,6.9,-,N/A,,Clear,130,2012-10-20 10:55:00
6:55 AM,48.2,27.7,45,29.78,10.0,SE,3.5,-,N/A,,Clear,130,2012-10-20 11:55:00
7:55 AM,47.5,28.6,48,29.78,10.0,SSE,5.8,-,N/A,,Clear,150,2012-10-20 12:55:00
8:55 AM,50.5,30.9,47,29.79,10.0,SSE,6.9,-,N/A,,Clear,160,2012-10-20 13:55:00
9:55 AM,57.2,33.6,41,29.80,10.0,South,9.2,-,N/A,,Clear,180,2012-10-20 14:55:00
10:55 AM,63.7,35.8,35,29.79,10.0,SSW,8.1,-,N/A,,Clear,200,2012-10-20 15:55:00
11:55 AM,67.3,37.4,33,29.78,10.0,Variable,6.9,-,N/A,,Clear,0,2012-10-20 16:55:00
12:55 PM,71.2,38.7,31,29.77,10.0,WSW,8.1,-,N/A,,Clear,250,2012-10-20 17:55:00
1:55 PM,75.2,41.0,29,29.73,10.0,SW,6.9,-,N/A,,Clear,220,2012-10-20 18:55:00
2:55 PM,78.6,42.4,28,29.70,10.0,South,5.8,-,N/A,,Clear,180,2012-10-20 19:55:00
3:55 PM,80.4,43.9,27,29.68,10.0,South,10.4,-,N/A,,Clear,190,2012-10-20 20:55:00
4:55 PM,80.4,42.6,26,29.67,10.0,SSW,11.5,-,N/A,,Clear,200,2012-10-20 21:55:00
5:55 PM,78.6,44.4,30,29.67,10.0,SSW,10.4,-,N/A,,Clear,200,2012-10-20 22:55:00
6:55 PM,72.1,47.5,41,29.67,10.0,SSE,5.8,-,N/A,,Clear,160,2012-10-20 23:55:00
7:55 PM,69.6,46.8,44,29.69,10.0,SE,6.9,-,N/A,,Clear,130,2012-10-21 00:55:00
8:55 PM,66.4,48.7,53,29.71,10.0,SSE,8.1,-,N/A,,Clear,150,2012-10-21 01:55:00
9:55 PM,66.6,49.8,55,29.72,10.0,SSE,6.9,-,N/A,,Clear,150,2012-10-21 02:55:00
10:55 PM,63.9,50.0,61,29.72,10.0,SSE,8.1,-,N/A,,Clear,150,2012-10-21 03:55:00
11:55 PM,63.1,50.7,64,29.72,10.0,SSE,5.8,-,N/A,,Clear,150,2012-10-21 04:55:00